Weather History for Rickenbacker, OH

Change the Weather History Date:

Friday, February 21, 2014

  Actual Average Record
Temperature  
Mean Temperature 46 °F -  
Max Temperature 59 °F 42 °F 71 °F (1997)
Min Temperature 33 °F 26 °F 0 °F (2008)
Degree Days  
Heating Degree Days 18    
Moisture  
Dew Point 28 °F    
Average Humidity 59    
Maximum Humidity 86    
Minimum Humidity 31    
Precipitation  
Precipitation 0.00 in - - ()
Sea Level Pressure  
Sea Level Pressure 29.79 in    
Wind  
Wind Speed 16 mph (SW)    
Max Wind Speed 31 mph    
Max Gust Speed 38 mph    
Visibility 10 miles    
Events Rain    
Averages and records for this station are not official NWS values.
T = Trace of Precipitation, MM = Missing Value Source: NWS Daily Summary

Daily Weather History Graph

Daily Weather History Graph

Search for Another Location

Airport:

Trip Planner

Search our weather history database for the weather conditions in past years. The results will help you decide how hot, cold, wet, or windy it might be!

Date:

Astronomy

Feb. 21, 2014 Rise Set
Actual Time 7:16 AM EST 6:14 PM EST
Civil Twilight 6:48 AM EST 6:42 PM EST
Nautical Twilight 6:17 AM EST 7:13 PM EST
Astronomical Twilight 5:46 AM EST 7:44 PM EST
Moon 12:06 AM EST 10:40 AM EST
Length of Visible Light 11h 53m
Length of Day
10h 58m
Waning Gibbous, 61% of the Moon is Illuminated
Feb 21
Waning Gibbous
Feb 22
Last Quarter
Mar 1
New
Mar 8
First Quarter
Mar 16
Full

Hourly Weather History & Observations

Time (EST) Temp. Windchill Dew Point Humidity Pressure Visibility Wind Dir Wind Speed Gust Speed Precip Events Conditions
12:15 AM 56.8 °F - 52.7 °F 86% 29.51 in 10.0 mi SSE 12.7 mph - N/A Rain Light Rain
12:35 AM 58.1 °F - 53.1 °F 83% 29.51 in 10.0 mi South 17.3 mph 23.0 mph N/A   Mostly Cloudy
12:55 AM 58.8 °F - 52.9 °F 81% 29.51 in 10.0 mi South 17.3 mph - N/A Rain Light Rain
1:15 AM 59.2 °F - 53.1 °F 80% 29.53 in 5.0 mi West 19.6 mph 31.1 mph N/A Rain Rain
1:35 AM 54.5 °F - 48.4 °F 80% 29.55 in 7.0 mi West 15.0 mph 27.6 mph N/A Rain Light Rain
1:55 AM 51.3 °F - 45.9 °F 82% 29.58 in 10.0 mi West 17.3 mph 23.0 mph N/A Rain Light Rain
2:15 AM 50.4 °F - 44.8 °F 81% 29.60 in 10.0 mi West 15.0 mph 24.2 mph N/A Rain Light Rain
2:35 AM 48.9 °F - 43.2 °F 80% 29.63 in 10.0 mi West 17.3 mph 20.7 mph N/A   Light Drizzle
2:55 AM 47.3 °F - 41.0 °F 79% 29.66 in 10.0 mi West 13.8 mph - N/A   Overcast
3:15 AM 45.7 °F 38.3 °F 38.5 °F 76% 29.66 in 10.0 mi West 18.4 mph 21.9 mph N/A   Overcast
3:35 AM 43.7 °F 35.4 °F 36.3 °F 75% 29.67 in 10.0 mi West 19.6 mph 26.5 mph N/A   Overcast
3:55 AM 42.4 °F 35.3 °F 34.7 °F 74% 29.67 in 10.0 mi West 13.8 mph - N/A   Overcast
4:15 AM 41.4 °F 34.0 °F 34.0 °F 75% 29.69 in 10.0 mi West 13.8 mph - N/A   Light Drizzle
4:35 AM 40.6 °F 32.3 °F 33.1 °F 74% 29.69 in 10.0 mi West 16.1 mph 21.9 mph N/A   Overcast
4:55 AM 40.5 °F 33.6 °F 32.0 °F 72% 29.69 in 10.0 mi WSW 11.5 mph - N/A Rain Light Rain
5:15 AM 39.6 °F 32.1 °F 32.0 °F 74% 29.72 in 10.0 mi WSW 12.7 mph - N/A Rain Light Rain
5:35 AM 39.2 °F 33.0 °F 32.2 °F 76% 29.72 in 10.0 mi SW 9.2 mph 16.1 mph N/A   Overcast
5:55 AM 39.2 °F 32.5 °F 32.0 °F 75% 29.73 in 10.0 mi SSW 10.4 mph - N/A   Overcast
6:15 AM 39.2 °F 32.5 °F 32.0 °F 75% 29.73 in 10.0 mi SSW 10.4 mph - N/A   Overcast
6:35 AM 39.2 °F 33.0 °F 32.0 °F 75% 29.72 in 10.0 mi SSW 9.2 mph - N/A   Overcast
6:55 AM 38.8 °F 31.6 °F 32.0 °F 76% 29.72 in 10.0 mi SSW 11.5 mph - N/A   Overcast
7:15 AM 39.0 °F 31.8 °F 32.0 °F 76% 29.73 in 10.0 mi SSW 11.5 mph - N/A   Overcast
7:35 AM 38.8 °F 31.6 °F 31.8 °F 76% 29.73 in 10.0 mi SSW 11.5 mph - N/A   Overcast
7:55 AM 38.7 °F 31.8 °F 32.0 °F 77% 29.75 in 10.0 mi SSW 10.4 mph - N/A   Overcast
8:15 AM 38.7 °F 30.1 °F 31.8 °F 76% 29.76 in 10.0 mi SSW 15.0 mph - N/A   Scattered Clouds
8:35 AM 39.2 °F 31.2 °F 31.6 °F 74% 29.76 in 10.0 mi SSW 13.8 mph 20.7 mph N/A   Clear
8:55 AM 39.4 °F 31.4 °F 31.6 °F 74% 29.76 in 10.0 mi SSW 13.8 mph - N/A   Clear
9:15 AM 40.5 °F 32.1 °F 32.2 °F 72% 29.76 in 10.0 mi SSW 16.1 mph 19.6 mph N/A   Clear
9:35 AM 42.1 °F 33.6 °F 32.9 °F 70% 29.76 in 10.0 mi SSW 18.4 mph 24.2 mph N/A   Clear
9:55 AM 42.6 °F 33.5 °F 32.4 °F 67% 29.76 in 10.0 mi SSW 21.9 mph 29.9 mph N/A   Scattered Clouds
10:15 AM 43.3 °F 34.2 °F 32.0 °F 64% 29.77 in 10.0 mi SW 23.0 mph 33.4 mph N/A   Mostly Cloudy
10:35 AM 43.0 °F 33.3 °F 30.0 °F 60% 29.77 in 10.0 mi SW 25.3 mph 33.4 mph N/A   Overcast
10:55 AM 43.3 °F 35.0 °F 29.7 °F 59% 29.77 in 10.0 mi WSW 19.6 mph 29.9 mph N/A   Overcast
11:15 AM 43.7 °F 34.1 °F 29.3 °F 57% 29.78 in 10.0 mi SW 26.5 mph 32.2 mph N/A   Overcast
11:35 AM 43.0 °F 33.8 °F 27.5 °F 54% 29.79 in 10.0 mi WSW 23.0 mph 32.2 mph N/A   Overcast
11:55 AM 42.4 °F 32.6 °F 25.9 °F 52% 29.80 in 10.0 mi SW 25.3 mph 35.7 mph N/A   Overcast
12:15 PM 42.6 °F 32.8 °F 26.2 °F 52% 29.80 in 10.0 mi WSW 25.3 mph 32.2 mph N/A   Overcast
12:35 PM 42.6 °F 33.3 °F 26.1 °F 52% 29.80 in 10.0 mi SW 23.0 mph 29.9 mph N/A   Mostly Cloudy
12:55 PM 43.9 °F 35.0 °F 25.2 °F 48% 29.79 in 10.0 mi SW 23.0 mph 34.5 mph N/A   Mostly Cloudy
1:15 PM 44.8 °F 35.7 °F 24.6 °F 45% 29.79 in 10.0 mi WSW 25.3 mph 33.4 mph N/A   Scattered Clouds
1:35 PM 45.3 °F 37.6 °F 24.8 °F 45% 29.79 in 10.0 mi SW 19.6 mph 33.4 mph N/A   Scattered Clouds
1:55 PM 45.7 °F 36.6 °F 24.4 °F 43% 29.79 in 10.0 mi SW 27.6 mph 36.8 mph N/A   Mostly Cloudy
2:15 PM 46.0 °F 38.0 °F 24.1 °F 42% 29.79 in 10.0 mi SW 21.9 mph 32.2 mph N/A   Mostly Cloudy
2:35 PM 46.9 °F - 23.0 °F 39% 29.79 in 10.0 mi SW 25.3 mph 35.7 mph N/A   Scattered Clouds
2:55 PM 47.7 °F - 23.2 °F 38% 29.80 in 10.0 mi WSW 25.3 mph 35.7 mph N/A   Scattered Clouds
3:15 PM 48.0 °F - 23.2 °F 38% 29.81 in 10.0 mi WSW 24.2 mph 35.7 mph N/A   Scattered Clouds
3:35 PM 48.2 °F - 23.4 °F 38% 29.81 in 10.0 mi WSW 31.1 mph 38.0 mph N/A   Scattered Clouds
3:55 PM 48.0 °F - 21.0 °F 34% 29.82 in 10.0 mi WSW 23.0 mph 35.7 mph N/A   Scattered Clouds
4:15 PM 48.0 °F - 21.2 °F 35% 29.83 in 10.0 mi WSW 21.9 mph 31.1 mph N/A   Clear
4:35 PM 47.5 °F - 20.3 °F 34% 29.84 in 10.0 mi WSW 25.3 mph 33.4 mph N/A   Clear
4:55 PM 46.8 °F - 18.5 °F 32% 29.86 in 10.0 mi WSW 20.7 mph 35.7 mph N/A   Clear
5:15 PM 45.9 °F 37.8 °F 16.9 °F 31% 29.87 in 10.0 mi WSW 21.9 mph 26.5 mph N/A   Clear
5:35 PM 45.0 °F 37.4 °F 18.9 °F 35% 29.88 in 10.0 mi WSW 18.4 mph - N/A   Clear
5:55 PM 44.2 °F 35.9 °F 18.7 °F 36% 29.88 in 10.0 mi WSW 20.7 mph 25.3 mph N/A   Clear
6:15 PM 43.0 °F 34.5 °F 16.3 °F 34% 29.90 in 10.0 mi WSW 19.6 mph 25.3 mph N/A   Clear
6:35 PM 41.2 °F 34.1 °F 16.7 °F 37% 29.90 in 10.0 mi WSW 12.7 mph - N/A   Clear
6:55 PM 39.4 °F 32.7 °F 18.9 °F 44% 29.92 in 10.0 mi SW 10.4 mph 16.1 mph N/A   Clear
7:15 PM 38.8 °F 31.6 °F 20.1 °F 47% 29.93 in 10.0 mi WSW 11.5 mph - N/A   Clear
7:35 PM 38.3 °F 32.5 °F 20.1 °F 48% 29.94 in 10.0 mi SW 8.1 mph - N/A   Clear
7:55 PM 36.5 °F 29.7 °F 21.6 °F 55% 29.95 in 10.0 mi SW 9.2 mph - N/A   Clear
8:15 PM 37.0 °F 29.3 °F 20.3 °F 51% 29.95 in 10.0 mi WSW 11.5 mph - N/A   Clear
8:35 PM 36.5 °F 31.0 °F 20.1 °F 52% 29.95 in 10.0 mi SW 6.9 mph - N/A   Clear
8:55 PM 35.4 °F 30.5 °F 20.1 °F 54% 29.95 in 10.0 mi SW 5.8 mph - N/A   Clear
9:15 PM 35.2 °F 30.3 °F 19.6 °F 53% 29.96 in 10.0 mi SSW 5.8 mph - N/A   Clear
9:35 PM 34.9 °F 28.3 °F 19.8 °F 54% 29.96 in 10.0 mi SSW 8.1 mph - N/A   Clear
9:55 PM 34.5 °F 28.6 °F 20.3 °F 56% 29.96 in 10.0 mi SSW 6.9 mph - N/A   Clear
10:15 PM 34.2 °F 28.2 °F 19.9 °F 56% 29.97 in 10.0 mi South 6.9 mph - N/A   Clear
10:35 PM 34.3 °F 27.7 °F 19.8 °F 55% 29.97 in 10.0 mi SSW 8.1 mph - N/A   Clear
10:55 PM 34.2 °F 27.5 °F 19.2 °F 54% 29.98 in 10.0 mi SW 8.1 mph - N/A   Clear
11:15 PM 34.7 °F 27.5 °F 18.3 °F 51% 29.97 in 10.0 mi SSW 9.2 mph - N/A   Clear
11:35 PM 35.1 °F 29.3 °F 18.3 °F 51% 29.97 in 10.0 mi South 6.9 mph - N/A   Clear
11:55 PM 33.8 °F 26.4 °F 19.0 °F 55% 29.96 in 10.0 mi South 9.2 mph - N/A   Clear